[[{"header":{"parameterUnit":"m.s-1","parameterCategory":1,"la1":30.2991,"la2":30.254,"lo1":-89.0895,"lo2":-89.0444,"dy":0.0017,"dx":0.0017,"nx":28,"ny":28,"refTime":"2026-01-31T03:00:00:Z","depth":0,"parameterNumber":2,"parameterNumberName":"U-component_of_WINDS"},"data":[0,0,0,0,0,0,0,0,0,0,0,0,0,0,0,0,0,0,0,0,0,0,0,0,0,0,0,0,0,0,0,0,0,0,0,0,0,0,0,0,0,0,0,0,0,0,0,0,0,0,0,0,0,0,0,0,0,0,1.8277,1.8277,0,1.8319,1.832,1.832,1.8328,1.8328,1.8328,1.8327,1.8369,1.8371,1.8372,0,0,0,0,0,0,0,0,0,0,0,0,0,1.8202,1.8204,1.8277,1.8277,1.8278,1.8319,1.832,1.832,1.8328,1.8328,1.8328,1.8327,1.8369,1.837,1.8372,0,0,0,0,0,0,0,0,0,0,0,0,0,1.8239,1.8204,1.8277,1.8287,1.8288,1.8319,1.832,1.832,1.8328,1.8328,1.8327,1.8327,1.8368,1.837,1.8372,1.8395,0,0,1.8379,1.838,0,0,0,0,0,0,0,0,1.8237,1.8241,1.8285,1.8286,1.8288,1.8318,1.8309,1.8345,1.8329,1.8313,1.8327,1.8327,1.8352,1.8356,1.8365,1.8397,1.8399,1.8379,1.838,1.8381,1.8382,0,0,0,0,0,0,0,1.8234,1.824,1.8293,1.8285,1.8287,1.8289,1.8294,1.8316,1.8335,1.8314,1.8315,1.832,1.8353,1.8363,1.8366,1.84,1.8379,1.8381,1.8382,1.8383,1.8455,1.8455,0,0,0,0,0,0,1.823,1.8238,1.8292,1.8295,1.8261,1.8291,1.8296,1.8309,1.8335,1.8338,1.8321,1.832,1.8359,1.8363,1.8367,1.8397,1.8381,1.8383,1.8384,1.8454,1.8455,1.8456,0,0,0,0,0,0,1.8228,1.8235,1.829,1.8266,1.8274,1.8293,1.8307,1.831,1.8319,1.8339,1.8343,1.8327,1.8359,1.8364,1.8389,1.8398,1.8384,1.8386,1.8453,1.8454,1.8455,1.8455,0,0,0,0,0,0,1.8226,1.8234,1.8243,1.8267,1.8275,1.8311,1.8307,1.8311,1.8323,1.8324,1.8346,1.8349,1.8359,1.8386,1.8391,1.8401,1.8388,1.8453,1.8454,1.8455,1.8454,1.8456,1.8457,0,0,0,0,0,1.8223,1.824,1.8243,1.825,1.8286,1.8312,1.8316,1.8328,1.8324,1.8333,1.8346,1.8349,1.8397,1.8388,1.8394,1.8405,1.8452,1.8454,1.8455,1.8454,1.8456,1.8457,0,0,0,0,0,0,1.8216,1.8244,1.8247,1.8272,1.829,1.8313,1.8324,1.8329,1.8347,1.8347,1.8359,1.8365,1.8388,1.8399,1.8389,1.8429,1.8424,1.8427,1.8421,1.8423,1.8425,1.8421,1.839,0,0,0,0,0,1.8218,1.8236,1.8259,1.8279,1.8288,1.8305,1.8316,1.8324,1.8342,1.8349,1.8364,1.8381,1.84,1.8412,1.8431,1.8456,1.8462,1.8467,1.8469,1.847,1.8471,1.8487,1.8489,1.846,1.846,1.846,0,0,1.8221,1.8238,1.8249,1.8278,1.8293,1.8311,1.8311,1.833,1.8345,1.8352,1.8376,1.8388,1.8408,1.8433,1.8445,1.8443,1.8481,1.8471,1.8472,1.8473,1.8488,1.8491,1.8493,1.8461,1.8461,1.8461,0,0,1.8236,1.8251,1.8269,1.8284,1.8307,1.8318,1.8323,1.8346,1.8354,1.8379,1.8385,1.8402,1.8435,1.8449,1.8461,1.8484,1.8487,1.849,1.8497,1.8512,1.8514,1.8516,1.8524,1.8527,1.8492,1.8492,1.8492,0,1.8236,1.8265,1.8278,1.8298,1.8311,1.832,1.834,1.8353,1.838,1.8389,1.8387,1.8429,1.8443,1.8472,1.8478,1.8487,1.8493,1.8486,1.8513,1.8515,1.8517,1.8525,1.8528,1.8492,1.8492,1.8492,1.8492,0,1.8265,1.8285,1.8298,1.8324,1.8339,1.8358,1.8375,1.8388,1.8395,1.8407,1.8433,1.8451,1.8473,1.8481,1.8487,1.8512,1.851,1.851,1.8505,1.852,1.8527,1.8531,1.8492,1.8492,1.8492,1.8492,0,0,1.8274,1.831,1.8314,1.8327,1.8353,1.8369,1.839,1.8413,1.8424,1.8443,1.846,1.8489,1.849,1.8503,1.8512,1.8524,1.8542,1.8523,1.8524,1.8526,1.8571,1.857,1.8573,1.8545,1.8546,1.8546,1.8569,0,1.8292,1.8329,1.8343,1.8373,1.8392,1.8402,1.842,1.8438,1.845,1.8468,1.8482,1.8502,1.8501,1.8509,1.8523,1.8537,1.8551,1.8536,1.8561,1.8562,1.8555,1.8577,1.8576,1.8596,1.8572,1.8572,1.8573,0,1.8317,1.8338,1.837,1.8395,1.8404,1.8419,1.8443,1.846,1.8481,1.8489,1.8505,1.8513,1.8536,1.853,1.8561,1.8551,1.8562,1.8571,1.8572,1.8574,1.8567,1.8579,1.8603,1.8606,1.8578,1.8577,1.8577,0,1.8321,1.8356,1.8381,1.8391,1.8421,1.8432,1.8445,1.8466,1.848,1.85,1.851,1.8532,1.8544,1.8562,1.8576,1.8571,1.8606,1.8602,1.8613,1.8613,1.8619,1.8618,1.8644,1.8627,1.8627,1.8627,1.8627,0,1.8339,1.8358,1.8383,1.8397,1.842,1.8436,1.8457,1.8471,1.849,1.8508,1.8518,1.8535,1.8553,1.8572,1.8583,1.8607,1.8613,1.862,1.8623,1.8619,1.8618,1.8625,1.8624,1.8628,1.8628,1.8628,1.8628,0,1.8346,1.8363,1.839,1.8417,1.8425,1.844,1.8463,1.8478,1.8492,1.8514,1.852,1.8541,1.8565,1.8581,1.861,1.8618,1.8644,1.8647,1.8637,1.8638,1.8649,1.8647,1.868,1.8685,1.8665,1.8666,1.8666,0,1.8355,1.8371,1.84,1.8413,1.8426,1.8447,1.8461,1.8478,1.8493,1.852,1.8531,1.8556,1.8575,1.8612,1.863,1.8653,1.8656,1.8666,1.866,1.8656,1.8656,1.8655,1.8656,1.8667,1.8667,1.8667,1.8667,0,1.8371,1.8379,1.84,1.8424,1.8441,1.8461,1.8481,1.8491,1.8511,1.8527,1.8552,1.8567,1.8598,1.8622,1.8647,1.8661,1.8667,1.8669,1.8673,1.8669,1.8662,1.8666,1.8639,1.8668,1.8668,1.8668,1.8668,1.8668,1.838,1.8394,1.8417,1.844,1.8457,1.8476,1.8492,1.8508,1.8529,1.8555,1.8564,1.859,1.8612,1.8647,1.8661,1.8681,1.868,1.8686,1.8687,1.8688,1.8688,1.866,1.8686,1.8686,1.8686,1.8686,1.8686,0,1.8395,1.8411,1.8432,1.846,1.8479,1.8485,1.8507,1.8522,1.8544,1.8565,1.8585,1.8614,1.8637,1.8658,1.8683,1.8695,1.8699,1.8701,1.87,1.8703,1.8687,1.8681,1.8698,1.8698,1.8698,1.8698,1.8698,1.8698,1.8406,1.8431,1.8442,1.8476,1.8492,1.8517,1.853,1.8547,1.8564,1.8595,1.8615,1.8629,1.865,1.8677,1.8699,1.8705,1.8713,1.8715,1.8721,1.8705,1.8704,1.8702,1.8697,1.8717,1.8717,1.8735,1.8735,1.8735]},{"header":{"parameterUnit":"m.s-1","parameterCategory":1,"la1":30.2991,"la2":30.254,"lo1":-89.0895,"lo2":-89.0444,"dy":0.0017,"dx":0.0017,"nx":28,"ny":28,"refTime":"2026-01-31T03:00:00:Z","depth":0,"parameterNumber":3,"parameterNumberName":"V-component_of_WINDS"},"data":[0,0,0,0,0,0,0,0,0,0,0,0,0,0,0,0,0,0,0,0,0,0,0,0,0,0,0,0,0,0,0,0,0,0,0,0,0,0,0,0,0,0,0,0,0,0,0,0,0,0,0,0,0,0,0,0,0,0,-8.3152,-8.3154,0,-8.3376,-8.3379,-8.3381,-8.3315,-8.3311,-8.3306,-8.3302,-8.3527,-8.3537,-8.3547,0,0,0,0,0,0,0,0,0,0,0,0,0,-8.2662,-8.2672,-8.3152,-8.3154,-8.3157,-8.3376,-8.3379,-8.3382,-8.3316,-8.3311,-8.3305,-8.33,-8.3523,-8.3535,-8.3548,0,0,0,0,0,0,0,0,0,0,0,0,0,-8.2879,-8.2675,-8.3151,-8.3151,-8.3153,-8.3375,-8.3379,-8.3382,-8.3317,-8.331,-8.3304,-8.3297,-8.3519,-8.3534,-8.3549,-8.3783,0,0,-8.3597,-8.3603,0,0,0,0,0,0,0,0,-8.2867,-8.2897,-8.3148,-8.3151,-8.3154,-8.3311,-8.3288,-8.3517,-8.3319,-8.3255,-8.3302,-8.3294,-8.346,-8.348,-8.3537,-8.3794,-8.3804,-8.3598,-8.3607,-8.3614,-8.3618,0,0,0,0,0,0,0,-8.2852,-8.2887,-8.324,-8.3152,-8.3156,-8.3138,-8.3161,-8.3331,-8.3393,-8.326,-8.3256,-8.3283,-8.346,-8.3522,-8.3542,-8.3807,-8.3598,-8.3611,-8.3621,-8.3627,-8.4267,-8.4274,0,0,0,0,0,0,-8.2836,-8.2875,-8.3233,-8.3247,-8.2991,-8.3153,-8.3179,-8.3267,-8.3391,-8.3404,-8.3289,-8.328,-8.3499,-8.3524,-8.3549,-8.3832,-8.3614,-8.3628,-8.3637,-8.4259,-8.4269,-8.4277,0,0,0,0,0,0,-8.2825,-8.2868,-8.3224,-8.306,-8.3104,-8.3169,-8.3269,-8.3275,-8.3337,-8.3414,-8.3424,-8.3342,-8.3495,-8.3528,-8.3726,-8.3839,-8.3635,-8.3649,-8.425,-8.4262,-8.4273,-8.4399,0,0,0,0,0,0,-8.2812,-8.2865,-8.2956,-8.3063,-8.3113,-8.3399,-8.3276,-8.3285,-8.3365,-8.3354,-8.3465,-8.3477,-8.3492,-8.3703,-8.3742,-8.3856,-8.3661,-8.424,-8.4255,-8.4269,-8.4385,-8.4413,-8.4437,0,0,0,0,0,-8.2794,-8.2981,-8.2961,-8.3004,-8.3228,-8.3405,-8.3434,-8.3449,-8.3374,-8.3465,-8.3514,-8.3473,-8.382,-8.3724,-8.3767,-8.3888,-8.4233,-8.4251,-8.4268,-8.4373,-8.4408,-8.4437,0,0,0,0,0,0,-8.2884,-8.2995,-8.2974,-8.3201,-8.3294,-8.3394,-8.3509,-8.3485,-8.36,-8.3586,-8.3597,-8.3623,-8.3827,-8.3877,-8.3768,-8.4121,-8.4015,-8.4042,-8.4081,-8.4114,-8.414,-8.4124,-8.3674,0,0,0,0,0,-8.293,-8.3066,-8.3155,-8.3347,-8.3395,-8.3445,-8.3522,-8.3526,-8.3622,-8.3661,-8.3724,-8.3819,-8.3949,-8.4034,-8.4158,-8.4391,-8.4414,-8.4495,-8.4522,-8.4543,-8.4566,-8.4693,-8.473,-8.4334,-8.4334,-8.4334,0,0,-8.3027,-8.3104,-8.3189,-8.3367,-8.344,-8.358,-8.3478,-8.363,-8.3733,-8.3684,-8.3876,-8.3925,-8.4031,-8.4248,-8.4347,-8.4296,-8.4681,-8.4565,-8.4582,-8.4593,-8.4715,-8.4752,-8.4786,-8.4346,-8.4344,-8.4342,0,0,-8.3275,-8.3347,-8.3515,-8.3591,-8.3703,-8.3735,-8.3775,-8.3879,-8.3911,-8.4104,-8.407,-8.4192,-8.4416,-8.4493,-8.4561,-8.4838,-8.4805,-8.4878,-8.5016,-8.514,-8.5171,-8.5199,-8.5298,-8.5333,-8.4901,-8.4901,-8.4901,0,-8.338,-8.3591,-8.3604,-8.376,-8.3839,-8.3802,-8.3972,-8.4043,-8.419,-8.4245,-8.4186,-8.4467,-8.4535,-8.477,-8.4838,-8.4895,-8.494,-8.4866,-8.5166,-8.5194,-8.522,-8.5314,-8.5352,-8.4909,-8.4908,-8.4907,-8.4907,0,-8.3715,-8.3862,-8.3983,-8.4128,-8.422,-8.4382,-8.4419,-8.4511,-8.4506,-8.4543,-8.474,-8.4821,-8.4961,-8.5017,-8.5013,-8.5251,-8.5216,-8.5162,-8.5057,-8.5265,-8.5355,-8.5391,-8.4921,-8.4918,-8.4916,-8.4914,0,0,-8.4026,-8.4176,-8.4221,-8.4286,-8.4407,-8.452,-8.4679,-8.4818,-8.4896,-8.4998,-8.5132,-8.5323,-8.5274,-8.5351,-8.5355,-8.5464,-8.5679,-8.5396,-8.5399,-8.5446,-8.5947,-8.5987,-8.6029,-8.5658,-8.5665,-8.567,-8.5938,0,-8.4284,-8.4567,-8.4584,-8.4839,-8.4975,-8.4942,-8.508,-8.5169,-8.5208,-8.5327,-8.5369,-8.5505,-8.5429,-8.5476,-8.5582,-8.5631,-8.578,-8.5611,-8.5781,-8.5787,-8.5757,-8.6076,-8.6119,-8.6368,-8.5973,-8.5979,-8.5983,0,-8.4624,-8.4738,-8.5008,-8.5111,-8.5168,-8.5293,-8.5421,-8.5536,-8.5635,-8.5656,-8.5744,-8.5733,-8.5895,-8.5784,-8.6007,-8.5892,-8.5962,-8.5997,-8.6006,-8.6023,-8.5898,-8.6101,-8.6447,-8.6485,-8.6038,-8.6033,-8.603,0,-8.4824,-8.5045,-8.5235,-8.5292,-8.5416,-8.5505,-8.556,-8.5653,-8.5735,-8.5847,-8.59,-8.6029,-8.6099,-8.6198,-8.6221,-8.6138,-8.6445,-8.6335,-8.6466,-8.6465,-8.6532,-8.6527,-8.6895,-8.6577,-8.6576,-8.6575,-8.6575,0,-8.5111,-8.5277,-8.5327,-8.5444,-8.5629,-8.5646,-8.5828,-8.5877,-8.5961,-8.6086,-8.6064,-8.6181,-8.6205,-8.6327,-8.6346,-8.6529,-8.656,-8.6581,-8.6584,-8.6583,-8.6581,-8.6629,-8.6613,-8.6585,-8.6583,-8.6581,-8.658,0,-8.5365,-8.5405,-8.5611,-8.5712,-8.5741,-8.5873,-8.5959,-8.6071,-8.6107,-8.6266,-8.6304,-8.6361,-8.6504,-8.6537,-8.6706,-8.6719,-8.6934,-8.6921,-8.6902,-8.6901,-8.7029,-8.7017,-8.7441,-8.7498,-8.7142,-8.7146,-8.7149,0,-8.5546,-8.5674,-8.5789,-8.5873,-8.5933,-8.6067,-8.6151,-8.6172,-8.6261,-8.6384,-8.6481,-8.6621,-8.6735,-8.6964,-8.7019,-8.7148,-8.7138,-8.7277,-8.7157,-8.7152,-8.714,-8.7133,-8.7145,-8.73,-8.7304,-8.7307,-8.731,0,-8.5863,-8.5877,-8.6,-8.6131,-8.6233,-8.6337,-8.6435,-8.6504,-8.6539,-8.6639,-8.6786,-8.6874,-8.7047,-8.7187,-8.7317,-8.7372,-8.7347,-8.7347,-8.7384,-8.7385,-8.7369,-8.738,-8.6965,-8.7338,-8.7335,-8.7333,-8.7331,-8.733,-8.6087,-8.6199,-8.6298,-8.6436,-8.6513,-8.6606,-8.6716,-8.6767,-8.689,-8.7035,-8.7039,-8.7199,-8.7294,-8.7467,-8.753,-8.7654,-8.7611,-8.7664,-8.7678,-8.7691,-8.7703,-8.7349,-8.7677,-8.7677,-8.7676,-8.7675,-8.7675,0,-8.6403,-8.6465,-8.6592,-8.6732,-8.6841,-8.6809,-8.6917,-8.7009,-8.7151,-8.7243,-8.7356,-8.7524,-8.7659,-8.7726,-8.7859,-8.7946,-8.7938,-8.798,-8.7974,-8.7987,-8.7733,-8.7688,-8.7985,-8.7985,-8.7985,-8.7985,-8.7984,-8.7984,-8.658,-8.6769,-8.6794,-8.7019,-8.708,-8.7238,-8.7302,-8.7387,-8.7461,-8.7651,-8.7764,-8.7807,-8.7889,-8.8028,-8.815,-8.8166,-8.8216,-8.8265,-8.8275,-8.8037,-8.8005,-8.7975,-8.7933,-8.8276,-8.8276,-8.8519,-8.8521,-8.8523]}]]